User: anonymous   Login
Location: Theydon Bois
(51.6750°N, 0.1050°E)
Time: 21:58:53
(UTC+01:00)
Language:

Cosmos 1400 Rocket - Orbit

View from above orbital plane
View from above orbital plane
View from above satellite
View from above satellite

Ground track
Ground track

The orbit data is extracted from the following two-line orbital elements,

1 13403U 82079B   18195.93243683 -.00000326 +00000-0 -23246-4 0  9993
2 13403 081.1685 179.4003 0034891 064.9183 295.5655 15.06855308955649
Epoch (UTC): 14 July 2018 22:22:42
Eccentricity: 0.0034891
inclination: 81.1685°
perigee height: 521 km
apogee height: 570 km
right ascension of ascending node: 179.4003°
argument of perigee: 64.9183°
revolutions per day: 15.06855308
mean anomaly at epoch: 295.5655°
orbit number at epoch: 95564

The dashed part of the orbit path shows where the satellite is in the earth's shadow,  

DLR